Total_Precipitation_Accumulation
0.33 0.32 0.40 0.61 0.71 0.62 0.66 0.76 1.03 0.93 0.81 0.79 0.77 0.79 0.79 0.84 0.86 0.87 0.93 0.93 0.88 0.85 0.85 0.91 0.93 0.92 0.98 1.07 1.13 1.24 1.31 1.27 1.23 1.11 0.98 0.93 0.95 0.91 0.97 1.03 1.02 1.06 1.10 1.18
0.17 0.17 0.26 0.51 0.61 0.62 0.60 0.60 0.63 0.58 0.56 0.47 0.46 0.52 0.57 0.63 0.62 0.64 0.70 0.71 0.68 0.65 0.62 0.65 0.59 0.61 0.66 0.77 0.93 1.12 1.19 1.14 1.04 0.96 0.95 0.89 0.85 0.82 0.85 0.88 0.91 0.95 0.98 1.12
0.26 0.19 0.28 0.52 0.52 0.56 0.42 0.30 0.30 0.38 0.39 0.32 0.33 0.41 0.47 0.56 0.58 0.54 0.58 0.60 0.62 0.61 0.57 0.56 0.52 0.54 0.61 0.69 0.83 0.94 0.97 0.93 0.85 0.82 0.81 0.76 0.73 0.76 0.81 0.82 0.85 0.87 0.85 0.98
0.40 0.37 0.59 0.70 0.54 0.47 0.40 0.25 0.18 0.21 0.24 0.25 0.28 0.35 0.38 0.45 0.54 0.51 0.46 0.49 0.55 0.57 0.54 0.55 0.58 0.61 0.70 0.77 0.78 0.82 0.88 0.88 0.83 0.76 0.72 0.69 0.66 0.69 0.80 0.81 0.78 0.80 0.80 0.79
0.52 0.53 0.56 0.53 0.37 0.35 0.45 0.43 0.20 0.17 0.18 0.19 0.22 0.29 0.31 0.32 0.38 0.38 0.33 0.30 0.32 0.36 0.39 0.44 0.47 0.51 0.54 0.56 0.57 0.61 0.66 0.72 0.68 0.61 0.64 0.69 0.66 0.72 0.76 0.75 0.76 0.73 0.77 0.77
0.59 0.61 0.63 0.44 0.21 0.19 0.34 0.58 0.26 0.14 0.12 0.12 0.18 0.30 0.28 0.21 0.23 0.22 0.22 0.20 0.19 0.20 0.23 0.26 0.30 0.41 0.47 0.44 0.39 0.39 0.41 0.47 0.51 0.49 0.53 0.61 0.70 0.76 0.73 0.70 0.75 0.75 0.70 0.68
0.67 0.78 0.81 0.54 0.28 0.23 0.49 0.59 0.26 0.13 0.10 0.11 0.15 0.19 0.18 0.17 0.18 0.15 0.16 0.18 0.20 0.20 0.20 0.23 0.27 0.31 0.34 0.39 0.35 0.34 0.36 0.38 0.40 0.41 0.45 0.55 0.61 0.58 0.57 0.61 0.67 0.69 0.70 0.65
0.85 1.06 1.14 0.70 0.48 0.48 0.45 0.29 0.18 0.13 0.11 0.14 0.17 0.16 0.15 0.15 0.15 0.12 0.13 0.16 0.17 0.18 0.21 0.26 0.25 0.24 0.25 0.27 0.28 0.30 0.31 0.34 0.35 0.33 0.33 0.36 0.42 0.47 0.48 0.50 0.53 0.54 0.55 0.54
0.93 0.93 0.79 0.57 0.48 0.39 0.31 0.25 0.17 0.16 0.16 0.16 0.16 0.15 0.14 0.13 0.13 0.11 0.11 0.13 0.15 0.21 0.26 0.28 0.27 0.23 0.22 0.23 0.26 0.30 0.31 0.32 0.32 0.31 0.31 0.32 0.35 0.39 0.44 0.49 0.52 0.49 0.46 0.45
0.45 0.45 0.40 0.33 0.28 0.25 0.22 0.21 0.17 0.15 0.17 0.20 0.18 0.17 0.15 0.14 0.14 0.13 0.12 0.13 0.15 0.21 0.26 0.31 0.29 0.27 0.27 0.25 0.25 0.27 0.28 0.29 0.30 0.31 0.33 0.33 0.36 0.40 0.47 0.47 0.43 0.41 0.42 0.44
0.27 0.24 0.24 0.23 0.21 0.21 0.20 0.16 0.13 0.13 0.15 0.20 0.20 0.17 0.15 0.15 0.18 0.17 0.15 0.14 0.16 0.19 0.24 0.29 0.31 0.29 0.29 0.27 0.25 0.25 0.27 0.27 0.27 0.29 0.33 0.33 0.31 0.33 0.39 0.41 0.38 0.40 0.42 0.46
0.22 0.15 0.17 0.20 0.17 0.17 0.18 0.15 0.13 0.14 0.18 0.18 0.16 0.15 0.15 0.15 0.20 0.21 0.18 0.17 0.19 0.19 0.23 0.24 0.27 0.30 0.31 0.33 0.31 0.28 0.27 0.27 0.28 0.29 0.32 0.32 0.31 0.31 0.32 0.32 0.36 0.36 0.34 0.35
0.14 0.10 0.11 0.14 0.14 0.12 0.13 0.11 0.13 0.14 0.16 0.16 0.15 0.16 0.14 0.14 0.19 0.22 0.22 0.23 0.26 0.26 0.25 0.23 0.24 0.26 0.27 0.34 0.35 0.35 0.34 0.32 0.30 0.30 0.30 0.30 0.31 0.33 0.35 0.31 0.27 0.27 0.28 0.27
0.09 0.10 0.13 0.15 0.14 0.11 0.11 0.11 0.15 0.16 0.15 0.15 0.15 0.15 0.14 0.15 0.18 0.18 0.21 0.25 0.27 0.26 0.27 0.27 0.26 0.26 0.32 0.37 0.39 0.43 0.46 0.45 0.38 0.34 0.33 0.32 0.33 0.37 0.42 0.44 0.37 0.28 0.27 0.28
0.10 0.12 0.16 0.17 0.15 0.13 0.11 0.12 0.14 0.13 0.14 0.15 0.14 0.14 0.16 0.19 0.21 0.21 0.21 0.20 0.20 0.20 0.20 0.24 0.26 0.26 0.32 0.33 0.35 0.39 0.45 0.47 0.45 0.44 0.41 0.38 0.38 0.44 0.46 0.43 0.36 0.32 0.30 0.28
0.15 0.12 0.13 0.13 0.14 0.13 0.11 0.12 0.13 0.12 0.13 0.14 0.14 0.18 0.21 0.23 0.24 0.27 0.23 0.18 0.16 0.16 0.16 0.21 0.24 0.25 0.28 0.28 0.28 0.32 0.33 0.39 0.44 0.46 0.46 0.42 0.43 0.46 0.47 0.44 0.36 0.33 0.31 0.29
0.15 0.17 0.17 0.15 0.15 0.15 0.15 0.15 0.14 0.12 0.12 0.11 0.15 0.22 0.24 0.24 0.23 0.26 0.27 0.23 0.20 0.18 0.17 0.19 0.23 0.23 0.23 0.23 0.24 0.25 0.26 0.29 0.34 0.37 0.39 0.39 0.40 0.41 0.46 0.47 0.42 0.38 0.36 0.34
0.13 0.16 0.18 0.17 0.16 0.17 0.17 0.18 0.17 0.15 0.13 0.11 0.14 0.21 0.27 0.28 0.28 0.29 0.31 0.28 0.23 0.20 0.19 0.20 0.20 0.20 0.21 0.22 0.24 0.25 0.24 0.26 0.28 0.30 0.33 0.36 0.36 0.35 0.40 0.45 0.45 0.43 0.43 0.42
0.12 0.14 0.15 0.15 0.13 0.13 0.16 0.17 0.19 0.20 0.20 0.16 0.13 0.19 0.27 0.33 0.36 0.33 0.31 0.30 0.29 0.29 0.29 0.27 0.27 0.23 0.22 0.25 0.26 0.23 0.21 0.22 0.25 0.28 0.31 0.33 0.34 0.33 0.35 0.37 0.40 0.41 0.40 0.41
0.17 0.19 0.21 0.18 0.14 0.13 0.14 0.16 0.17 0.19 0.22 0.21 0.18 0.19 0.27 0.33 0.34 0.30 0.26 0.27 0.31 0.36 0.35 0.36 0.33 0.29 0.28 0.29 0.31 0.25 0.24 0.26 0.28 0.31 0.31 0.29 0.29 0.31 0.33 0.34 0.36 0.39 0.41 0.43
0.24 0.29 0.28 0.24 0.18 0.14 0.13 0.13 0.15 0.17 0.20 0.20 0.21 0.23 0.31 0.38 0.37 0.32 0.28 0.27 0.30 0.33 0.34 0.35 0.35 0.35 0.35 0.37 0.39 0.32 0.30 0.29 0.30 0.32 0.33 0.32 0.30 0.30 0.31 0.34 0.37 0.41 0.45 0.46
0.27 0.27 0.25 0.25 0.22 0.17 0.15 0.15 0.15 0.16 0.17 0.18 0.20 0.23 0.30 0.38 0.40 0.35 0.30 0.32 0.35 0.38 0.33 0.31 0.32 0.39 0.46 0.45 0.37 0.34 0.33 0.33 0.33 0.31 0.32 0.34 0.35 0.36 0.37 0.40 0.42 0.44 0.46 0.46
0.26 0.25 0.28 0.30 0.28 0.24 0.21 0.20 0.21 0.20 0.21 0.22 0.23 0.24 0.27 0.31 0.39 0.43 0.35 0.31 0.32 0.37 0.34 0.33 0.37 0.42 0.46 0.41 0.39 0.39 0.37 0.35 0.33 0.33 0.35 0.38 0.39 0.41 0.43 0.45 0.46 0.48 0.51 0.55
0.23 0.25 0.30 0.32 0.31 0.29 0.28 0.28 0.30 0.30 0.29 0.29 0.30 0.31 0.31 0.35 0.38 0.45 0.40 0.35 0.37 0.38 0.34 0.37 0.42 0.47 0.48 0.37 0.37 0.41 0.43 0.42 0.41 0.40 0.42 0.44 0.45 0.47 0.49 0.51 0.52 0.54 0.59 0.63
0.21 0.21 0.25 0.31 0.32 0.31 0.29 0.29 0.30 0.32 0.33 0.31 0.32 0.34 0.35 0.39 0.44 0.48 0.44 0.37 0.40 0.42 0.41 0.44 0.48 0.50 0.47 0.44 0.42 0.44 0.47 0.49 0.53 0.53 0.49 0.51 0.53 0.56 0.59 0.62 0.64 0.66 0.66 0.66
0.20 0.18 0.21 0.27 0.29 0.28 0.26 0.26 0.28 0.32 0.34 0.32 0.32 0.35 0.37 0.40 0.44 0.51 0.54 0.48 0.45 0.48 0.45 0.43 0.45 0.47 0.47 0.52 0.54 0.54 0.54 0.54 0.52 0.50 0.48 0.50 0.51 0.53 0.54 0.57 0.61 0.66 0.70 0.69
0.20 0.19 0.20 0.23 0.25 0.24 0.24 0.26 0.29 0.32 0.35 0.36 0.36 0.36 0.36 0.38 0.43 0.49 0.55 0.55 0.50 0.47 0.48 0.48 0.47 0.47 0.47 0.51 0.57 0.60 0.60 0.58 0.56 0.55 0.54 0.55 0.56 0.57 0.57 0.57 0.61 0.66 0.71 0.74